Wind_Speed
113 112 110 107 110 112 112 111 111 108 98 88 81 77 69 59 51 46 41 41 50 56 64 71 78 82 85 87 88 95 97 98 95 89 86 85 83 82 80 81 82 78 78 79 82 82 79
114 116 112 110 112 112 112 111 111 109 98 89 82 76 71 60 55 48 45 42 46 54 61 68 74 81 83 84 87 89 95 98 96 93 89 84 83 81 81 78 75 72 74 76 78 78 74
114 116 113 113 114 114 113 114 114 108 98 91 84 73 66 67 57 55 49 46 44 52 58 65 70 75 82 87 87 87 91 94 98 96 93 88 83 80 80 79 76 71 72 76 78 77 73
117 117 114 113 115 114 113 115 113 107 99 92 86 73 62 57 58 55 46 48 47 48 56 61 67 70 78 85 89 90 86 91 93 97 97 94 87 83 78 79 77 75 75 75 79 77 74
118 117 115 116 117 117 117 118 115 106 100 96 88 73 63 55 49 47 45 44 48 47 53 59 60 70 74 79 88 91 87 88 89 92 96 94 93 88 81 78 77 75 74 76 78 76 76
119 118 118 119 119 118 120 119 116 104 100 96 85 71 62 52 44 40 39 36 48 48 52 54 53 62 64 73 83 88 89 88 90 89 92 95 91 90 87 83 79 80 78 75 76 73 72
118 118 119 120 120 120 120 117 113 105 103 96 83 70 59 50 42 36 32 33 48 51 50 42 52 61 66 68 77 85 85 89 91 89 86 88 89 89 91 90 88 79 75 77 80 80 76
117 117 119 121 120 121 120 118 111 107 104 97 83 69 60 50 41 33 30 31 42 48 44 46 51 56 62 63 70 78 81 84 90 89 86 82 84 88 89 88 88 86 86 83 81 79 75
116 118 120 120 120 122 120 118 109 106 102 91 79 68 59 49 38 25 21 25 37 48 44 48 46 54 56 55 62 73 79 81 87 88 85 82 81 81 83 85 87 86 84 86 85 84 83
116 119 120 121 121 122 119 117 108 105 99 85 75 66 58 46 33 19 16 23 37 43 37 42 44 50 47 47 54 67 72 74 76 84 86 81 79 76 75 76 80 81 82 82 83 84 83
118 119 120 119 121 123 119 116 109 106 99 83 73 64 54 40 27 15 13 24 34 37 41 43 45 46 44 44 51 63 68 67 71 74 77 78 77 80 80 74 74 77 79 83 82 82 79
117 118 119 119 121 122 119 115 109 106 98 83 71 61 49 37 24 11 10 17 23 34 41 41 42 39 38 39 44 51 62 67 67 67 71 73 75 74 77 76 75 75 78 80 79 77 74
117 117 118 118 120 121 117 112 107 104 93 79 68 57 45 34 22 11 3 14 26 29 34 38 37 36 34 36 40 45 56 65 66 67 67 67 69 70 69 67 69 75 77 76 74 72 72
117 118 116 116 119 120 115 110 106 102 90 75 64 52 40 28 14 10 17 25 29 33 36 37 36 36 32 33 37 43 46 53 58 62 64 66 65 65 66 64 63 66 76 73 70 69 71
116 115 114 114 117 117 112 106 103 100 88 72 61 48 36 21 8 9 20 29 35 40 38 33 29 29 26 27 32 36 40 44 49 54 56 60 64 64 61 60 60 62 61 64 68 72 74
114 113 112 113 116 114 109 103 99 95 83 69 57 45 33 21 10 6 22 34 39 41 38 35 33 29 25 27 29 33 37 37 39 40 40 44 47 50 49 51 54 54 54 57 61 64 66
111 111 110 111 112 111 106 101 97 93 80 67 56 42 30 20 12 14 22 33 40 40 36 33 28 24 24 27 31 35 36 34 34 33 34 34 34 38 38 38 41 46 50 51 54 55 55
108 107 108 109 108 107 103 96 92 89 76 66 52 39 29 19 9 13 18 30 40 38 35 31 27 24 21 24 27 27 32 31 29 28 25 28 32 31 28 29 31 34 38 41 45 44 47
106 106 105 107 102 103 98 93 89 82 73 64 49 36 26 18 7 11 20 32 37 34 31 25 23 22 22 25 24 24 25 26 25 25 25 25 24 22 24 29 33 35 31 27 26 30 35
103 105 103 103 96 98 94 90 88 80 71 60 49 34 26 23 11 10 22 31 35 30 27 23 22 22 24 28 30 29 26 23 21 20 20 22 21 24 26 25 23 18 18 18 25 29 35
99 102 100 97 91 92 91 89 85 83 69 60 52 33 27 20 15 9 17 32 33 29 26 22 24 27 30 33 31 28 25 21 17 19 19 20 22 22 21 18 15 15 15 21 23 22 25
98 98 97 91 85 87 86 84 82 79 75 64 56 36 25 17 11 14 8 33 30 26 23 23 28 30 32 34 30 25 22 18 17 20 21 21 19 16 14 13 12 13 16 16 16 12 7
96 94 92 85 79 81 82 80 78 73 69 58 51 37 22 13 5 13 21 27 28 25 23 22 29 32 33 34 31 26 23 20 19 18 16 15 14 13 13 11 10 12 14 14 6 7 13
93 89 87 80 74 75 76 77 73 67 65 58 48 40 21 14 4 16 27 29 29 29 27 26 28 33 34 33 31 27 25 22 19 16 14 13 13 13 10 7 9 13 15 13 5 10 13
88 83 81 74 70 72 71 73 72 65 58 54 48 40 26 12 9 14 26 31 34 31 29 28 29 32 34 33 30 27 23 22 20 18 15 13 12 10 7 9 13 21 13 7 6 14 15
82 78 76 70 66 68 69 69 69 67 58 50 46 39 29 17 12 14 24 32 33 33 31 29 31 31 33 33 32 30 28 24 22 20 17 14 12 9 8 15 19 21 16 10 8 13 19
77 72 71 63 62 63 65 67 65 65 61 51 44 38 32 21 15 15 22 33 41 40 38 35 36 36 35 34 33 30 27 24 21 20 17 14 12 11 12 18 20 21 16 12 12 16 18
74 68 65 57 57 60 62 63 62 60 60 54 46 38 33 25 17 18 20 27 39 40 42 41 38 38 37 36 34 31 27 24 22 20 17 15 16 13 14 19 22 25 18 17 16 19 20
71 64 61 54 54 57 59 61 58 58 56 53 48 40 34 25 19 19 23 25 33 38 42 44 41 39 38 37 36 33 28 23 24 22 20 19 17 14 15 20 21 17 17 16 12 16 19
Wind_Direction
344 346 344 344 344 344 344 344 343 343 341 338 334 328 323 316 308 298 285 266 251 240 232 229 227 224 222 221 225 224 224 223 222 223 224 226 228 231 232 232 233 233 236 238 240 244 246
345 343 344 344 343 343 342 343 343 342 340 337 333 327 321 315 307 297 286 274 254 243 234 227 226 225 221 220 223 226 223 224 224 223 222 223 226 228 231 231 232 234 235 238 239 240 240
344 341 342 343 342 342 342 344 342 341 339 337 332 326 321 312 305 295 284 273 260 245 236 229 223 224 221 220 221 224 224 222 223 223 224 223 224 226 228 230 232 232 233 232 234 236 236
343 340 341 341 341 341 343 343 342 341 339 336 332 325 318 308 298 292 280 269 259 247 238 231 222 223 222 221 220 222 223 224 222 222 223 225 223 223 226 229 230 230 232 234 236 236 238
341 339 340 341 341 341 343 344 343 341 339 337 332 327 321 312 300 287 279 260 253 246 238 233 222 220 220 220 220 220 219 223 225 223 223 224 224 224 224 226 229 230 231 233 239 237 239
340 339 339 341 342 341 343 344 343 341 340 337 333 330 324 319 306 291 275 253 244 239 233 232 225 218 220 219 220 220 218 218 224 224 223 224 226 227 225 228 229 228 230 234 237 237 240
339 338 340 340 341 341 343 344 343 342 341 338 336 334 329 323 309 291 273 249 232 232 226 224 219 212 215 218 219 218 218 216 220 225 225 223 226 227 230 231 230 230 231 234 237 239 238
338 338 340 339 340 341 344 345 343 343 342 340 337 337 333 327 314 297 276 243 227 228 221 217 216 212 214 216 218 216 217 218 218 224 226 224 223 227 230 230 231 233 233 233 235 238 241
336 338 339 340 339 341 345 345 343 344 343 341 340 340 336 329 321 305 274 240 218 221 213 210 208 210 210 213 216 216 215 217 219 220 225 225 225 227 230 232 234 234 238 240 241 238 239
336 337 338 339 339 342 345 345 344 345 345 344 344 342 337 333 330 313 257 222 210 216 205 204 203 209 208 211 215 213 214 217 218 220 224 227 229 229 230 232 234 236 237 240 241 244 245
335 337 338 339 339 342 345 345 345 347 347 347 348 343 339 339 338 320 247 210 210 202 196 196 197 202 203 209 210 210 213 215 215 217 223 226 228 230 233 235 236 237 238 239 242 243 246
334 336 337 338 339 341 345 345 345 348 348 348 350 345 343 345 346 337 251 218 191 194 188 192 194 197 201 206 207 209 211 213 216 217 221 224 228 230 233 236 236 239 242 243 243 245 248
332 335 337 338 340 341 345 345 346 348 349 350 351 346 347 350 352 360 31 148 182 184 180 181 188 192 197 199 200 205 208 212 215 218 220 222 226 229 232 233 235 236 240 243 246 247 249
332 334 336 338 339 340 345 345 346 348 351 352 351 346 350 354 10 63 123 155 166 166 175 179 184 186 191 192 198 202 206 212 217 221 222 224 223 226 231 233 236 238 239 243 245 248 253
330 333 336 339 338 340 344 345 346 349 351 354 351 347 352 357 20 116 149 146 156 164 168 174 177 182 189 192 194 197 202 206 210 217 221 225 226 229 234 238 239 240 242 243 247 249 253
330 333 336 339 338 339 343 345 346 349 352 355 352 350 355 349 2 91 139 149 159 162 168 163 172 180 183 186 191 194 194 194 201 207 209 217 222 227 231 233 236 240 242 245 248 251 253
330 332 335 338 337 337 341 344 346 350 354 356 352 356 358 351 27 103 150 152 156 160 161 163 172 178 179 183 190 190 188 189 192 194 200 207 214 221 226 232 237 242 246 249 252 255 256
329 331 334 336 336 336 340 344 346 350 354 358 350 359 2 3 75 129 144 156 159 157 160 164 168 170 177 181 192 193 191 186 188 194 204 211 219 224 225 227 231 237 243 248 254 257 255
328 330 333 335 335 334 339 343 345 351 355 0 356 0 7 13 62 116 142 150 153 155 156 159 159 166 165 175 174 172 173 174 178 185 196 206 214 219 228 234 238 243 243 236 242 252 265
326 328 332 334 334 332 337 342 344 350 355 2 2 1 12 17 30 116 146 149 149 152 154 154 157 158 159 163 163 157 158 166 181 193 202 212 219 217 215 219 218 214 230 249 262 272 274
325 327 330 333 332 331 335 340 345 347 357 0 5 6 12 16 37 45 157 153 150 153 158 154 157 156 156 156 157 164 171 179 184 189 195 189 186 186 186 198 214 239 258 266 266 257 270
323 326 328 332 331 330 333 338 344 347 352 357 2 2 11 12 51 45 78 151 155 157 157 159 164 163 163 163 167 173 177 178 174 166 168 172 176 186 206 227 245 261 264 239 243 270 320
321 325 326 331 331 328 332 336 342 347 347 354 357 355 359 2 64 139 159 160 162 165 167 169 170 169 170 170 173 174 178 177 179 181 183 190 201 217 228 229 262 253 219 203 201 347 347
319 323 324 328 328 327 330 333 339 345 345 347 353 350 347 344 321 170 179 176 172 176 178 177 175 178 178 180 180 184 187 190 194 197 200 213 223 226 222 264 240 217 205 211 273 313 334
318 321 322 327 325 326 328 332 334 340 344 342 345 348 337 322 296 215 188 186 181 184 183 186 182 185 187 189 189 191 192 199 206 206 212 218 218 219 257 253 225 197 200 220 293 316 326
316 319 320 325 323 325 327 330 332 336 341 340 339 341 334 307 279 244 207 192 193 189 190 192 189 190 190 190 193 193 198 202 211 216 222 214 221 232 246 228 199 198 209 240 281 307 320
313 316 318 323 321 323 325 327 332 332 336 336 335 334 330 305 268 248 228 209 197 196 196 197 195 195 193 193 196 198 202 205 211 215 210 208 221 237 235 222 214 207 218 245 269 295 313
311 315 316 321 318 320 322 325 329 330 331 331 330 328 324 308 270 242 230 225 213 206 201 199 199 198 197 196 198 199 203 206 208 203 203 211 227 246 234 221 223 216 237 264 275 297 306
309 313 315 318 315 318 320 323 325 326 328 325 325 323 320 303 271 242 228 223 224 217 210 206 204 202 200 198 198 201 204 207 198 198 205 217 229 242 230 203 209 215 244 260 272 295 301
Height
10663 10649 10634 10620 10602 10584 10569 10555 10537 10524 10510 10499 10485 10471 10462 10455 10450 10446 10446 10449 10449 10453 10458 10465 10475 10487 10501 10516 10526 10537 10554 10566 10578 10594 10603 10613 10625 10634 10644 10653 10663 10678 10686 10693 10695 10702 10714
10656 10637 10625 10610 10593 10576 10559 10545 10527 10509 10494 10482 10470 10455 10439 10433 10427 10427 10425 10427 10430 10434 10440 10446 10455 10469 10484 10498 10511 10519 10535 10549 10563 10577 10589 10601 10611 10622 10630 10642 10653 10663 10671 10682 10685 10687 10698
10647 10629 10615 10599 10584 10564 10547 10529 10509 10494 10478 10465 10452 10438 10422 10407 10403 10401 10404 10406 10411 10414 10420 10427 10438 10451 10469 10477 10493 10501 10515 10532 10546 10561 10574 10586 10598 10611 10620 10628 10640 10650 10657 10661 10665 10670 10681
10637 10619 10605 10590 10572 10553 10534 10515 10496 10477 10460 10445 10431 10417 10403 10392 10380 10375 10382 10384 10389 10395 10401 10408 10422 10436 10450 10464 10474 10485 10503 10515 10530 10544 10559 10573 10585 10597 10609 10618 10626 10635 10643 10651 10649 10661 10668
10629 10610 10596 10578 10559 10537 10518 10498 10476 10457 10441 10425 10408 10392 10377 10367 10357 10353 10354 10364 10367 10376 10384 10389 10407 10418 10429 10448 10458 10470 10489 10500 10515 10529 10544 10558 10570 10583 10594 10606 10615 10624 10632 10635 10641 10650 10657
10619 10598 10583 10565 10546 10524 10504 10484 10463 10444 10426 10407 10389 10371 10354 10343 10335 10332 10333 10342 10347 10356 10364 10375 10394 10408 10420 10431 10441 10457 10473 10489 10500 10513 10528 10545 10560 10575 10585 10594 10602 10603 10617 10628 10633 10641 10649
10611 10590 10573 10554 10534 10513 10494 10472 10448 10427 10408 10388 10369 10352 10336 10326 10319 10315 10316 10322 10326 10336 10348 10374 10383 10389 10399 10413 10428 10443 10460 10476 10488 10500 10517 10532 10549 10563 10563 10574 10585 10600 10612 10616 10619 10625 10636
10601 10581 10565 10544 10524 10503 10481 10459 10436 10415 10393 10371 10352 10336 10321 10312 10306 10302 10302 10306 10313 10325 10341 10358 10369 10383 10390 10404 10418 10433 10450 10466 10479 10489 10502 10521 10536 10539 10552 10565 10574 10587 10595 10598 10605 10615 10629
10591 10572 10554 10535 10513 10492 10471 10449 10427 10407 10387 10363 10340 10323 10310 10300 10295 10292 10293 10297 10304 10313 10329 10347 10363 10370 10382 10397 10409 10424 10438 10451 10463 10481 10492 10506 10519 10533 10546 10556 10561 10572 10581 10587 10594 10603 10611
10581 10563 10545 10525 10504 10482 10462 10440 10419 10398 10378 10355 10333 10315 10302 10293 10287 10284 10284 10287 10295 10304 10328 10344 10358 10365 10380 10392 10403 10416 10431 10445 10461 10473 10485 10500 10511 10523 10533 10540 10549 10561 10569 10572 10578 10585 10597
10571 10555 10538 10517 10496 10473 10451 10430 10409 10389 10366 10346 10326 10309 10298 10288 10281 10278 10279 10282 10287 10305 10322 10339 10350 10361 10375 10386 10396 10410 10425 10438 10450 10463 10477 10488 10500 10510 10520 10531 10540 10549 10553 10556 10566 10574 10583
10564 10549 10531 10509 10488 10466 10446 10424 10403 10384 10362 10339 10322 10308 10295 10284 10278 10276 10276 10281 10294 10305 10322 10336 10349 10364 10373 10382 10394 10407 10419 10430 10443 10458 10467 10480 10487 10499 10509 10519 10528 10535 10539 10548 10555 10563 10573
10558 10543 10524 10504 10483 10460 10442 10420 10402 10381 10363 10340 10322 10308 10296 10285 10280 10277 10281 10289 10297 10309 10326 10338 10352 10361 10370 10379 10390 10401 10410 10423 10437 10447 10458 10467 10479 10491 10501 10509 10516 10525 10527 10535 10545 10552 10557
10551 10535 10519 10500 10477 10456 10439 10417 10399 10379 10361 10340 10323 10311 10299 10289 10284 10281 10286 10288 10300 10317 10330 10340 10351 10360 10369 10378 10388 10396 10408 10420 10433 10443 10453 10460 10474 10482 10491 10499 10508 10512 10516 10526 10534 10538 10542
10545 10529 10511 10495 10471 10453 10436 10417 10398 10379 10360 10341 10325 10313 10303 10293 10288 10285 10288 10296 10306 10318 10330 10344 10356 10363 10371 10381 10388 10397 10407 10416 10427 10435 10445 10455 10465 10474 10484 10492 10499 10503 10509 10516 10522 10527 10532
10539 10522 10505 10489 10466 10449 10433 10416 10399 10381 10364 10343 10328 10317 10307 10298 10295 10293 10296 10301 10310 10321 10333 10345 10354 10362 10372 10379 10388 10397 10405 10413 10422 10432 10441 10449 10460 10469 10476 10483 10490 10497 10502 10507 10511 10516 10520
10531 10516 10501 10485 10463 10446 10430 10415 10398 10382 10364 10346 10331 10322 10314 10304 10303 10303 10302 10307 10316 10326 10338 10348 10357 10365 10373 10379 10388 10396 10404 10413 10422 10431 10439 10447 10456 10462 10471 10479 10485 10488 10492 10498 10500 10504 10507
10524 10511 10496 10481 10460 10442 10428 10414 10400 10385 10368 10351 10335 10327 10320 10314 10311 10307 10310 10314 10320 10332 10343 10352 10360 10367 10375 10382 10390 10399 10406 10415 10423 10430 10439 10446 10450 10458 10468 10473 10478 10481 10484 10489 10492 10493 10487
10517 10505 10493 10475 10456 10437 10426 10413 10399 10387 10372 10356 10344 10333 10324 10320 10317 10315 10317 10321 10329 10339 10348 10357 10363 10370 10376 10384 10393 10401 10408 10416 10423 10430 10436 10442 10450 10457 10463 10467 10469 10473 10478 10481 10482 10480 10480
10511 10498 10489 10472 10454 10433 10423 10410 10395 10385 10374 10360 10352 10337 10331 10327 10325 10325 10326 10329 10337 10346 10354 10361 10367 10372 10380 10387 10394 10402 10410 10417 10423 10430 10436 10442 10448 10451 10455 10459 10465 10469 10472 10474 10472 10473 10468
10509 10494 10483 10469 10450 10432 10420 10405 10395 10376 10375 10361 10357 10345 10337 10334 10332 10333 10333 10337 10343 10350 10358 10364 10370 10376 10382 10389 10396 10404 10411 10417 10424 10429 10433 10439 10443 10448 10452 10457 10461 10464 10466 10466 10465 10465 10463
10503 10489 10477 10465 10450 10432 10418 10405 10393 10378 10365 10360 10350 10352 10346 10342 10339 10339 10341 10344 10350 10356 10361 10366 10372 10378 10384 10391 10398 10406 10412 10418 10424 10428 10433 10438 10442 10447 10450 10453 10456 10458 10458 10459 10461 10461 10458
10496 10484 10470 10460 10448 10430 10416 10405 10396 10385 10374 10369 10362 10356 10350 10348 10345 10345 10350 10352 10355 10359 10364 10369 10373 10380 10386 10392 10399 10406 10412 10418 10423 10428 10432 10437 10441 10444 10447 10450 10451 10452 10454 10456 10456 10455 10454
10487 10478 10463 10454 10443 10428 10415 10402 10396 10388 10373 10368 10364 10359 10354 10351 10350 10346 10348 10351 10355 10359 10363 10368 10375 10380 10386 10392 10398 10405 10411 10416 10421 10426 10430 10434 10437 10440 10443 10444 10445 10448 10450 10451 10451 10450 10448
10478 10470 10458 10449 10437 10423 10413 10401 10391 10387 10378 10368 10361 10359 10354 10352 10350 10349 10347 10351 10352 10357 10362 10368 10373 10379 10385 10390 10396 10403 10409 10414 10420 10424 10428 10431 10433 10435 10437 10439 10442 10445 10447 10447 10447 10445 10444
10468 10461 10450 10442 10430 10418 10407 10399 10386 10378 10376 10368 10360 10355 10354 10349 10348 10347 10346 10348 10353 10356 10361 10367 10371 10377 10383 10388 10393 10400 10406 10412 10417 10421 10425 10427 10429 10432 10434 10437 10439 10442 10443 10443 10443 10442 10440
10459 10452 10443 10435 10423 10412 10401 10391 10383 10371 10366 10364 10358 10351 10348 10346 10344 10343 10343 10343 10345 10350 10356 10362 10367 10374 10380 10386 10392 10398 10403 10409 10413 10417 10421 10424 10426 10429 10431 10434 10436 10438 10440 10439 10440 10439 10437
10448 10442 10435 10428 10416 10406 10396 10386 10376 10368 10358 10353 10351 10347 10342 10339 10338 10337 10338 10340 10342 10345 10350 10356 10362 10369 10377 10383 10389 10394 10400 10405 10409 10414 10417 10421 10423 10426 10429 10430 10432 10435 10437 10437 10436 10435 10433
10436 10431 10425 10419 10409 10399 10391 10381 10372 10360 10353 10346 10341 10337 10335 10332 10331 10330 10331 10333 10337 10340 10345 10351 10359 10366 10373 10379 10385 10390 10396 10401 10405 10410 10413 10416 10420 10423 10425 10427 10428 10432 10432 10433 10432 10430 10428